| time (UTC) | temp C | wind direction | speed KPH | gust KPH | rain 1hr cm | rain 24hr cm | rain mn cm | humidity % | barometer mb |
| 20260903000046 | 33 | 51 | 0.0 | 4.8 | 0.00 | 0.00 | 0.00 | 50 | 990.3 |
| 20260902234600 | 33 | 359 | 0.0 | 1.6 | 0.00 | 0.00 | 0.00 | 50 | 990.2 |
| 20260902233044 | 34 | 359 | 0.0 | 20.9 | 0.00 | 0.00 | 0.00 | 48 | 990.1 |
| 20260902231645 | 34 | 359 | 0.0 | 16.1 | 0.00 | 0.00 | 0.00 | 49 | 990.2 |
| 20260902230043 | 35 | 9 | 0.0 | 3.2 | 0.00 | 0.00 | 0.00 | 48 | 990.2 |
| 20260902224605 | 36 | 307 | 0.0 | 6.4 | 0.00 | 0.00 | 0.00 | 46 | 990.1 |
| 20260902223042 | 35 | 359 | 0.0 | 14.5 | 0.00 | 0.00 | 0.00 | 46 | 989.9 |
| 20260902221542 | 36 | 359 | 0.0 | 16.1 | 0.00 | 0.00 | 0.00 | 45 | 990.0 |
| 20260902220046 | 37 | 359 | 0.0 | 3.2 | 0.00 | 0.00 | 0.00 | 42 | 990.0 |
| 20260902214540 | 36 | 289 | 0.0 | 16.1 | 0.00 | 0.00 | 0.00 | 44 | 990.1 |
| 20260902213038 | 37 | 359 | 0.0 | 8.0 | 0.00 | 0.00 | 0.00 | 41 | 990.3 |
| 20260902211538 | 37 | 359 | 0.0 | 1.6 | 0.00 | 0.00 | 0.00 | 44 | 990.5 |
| 20260902210034 | 37 | 293 | 0.0 | 14.5 | 0.00 | 0.00 | 0.00 | 43 | 990.5 |
| 20260902204538 | 37 | 305 | 0.0 | 4.8 | 0.00 | 0.00 | 0.00 | 43 | 990.9 |
| 20260902203029 | 37 | 283 | 0.0 | 3.2 | 0.00 | 0.00 | 0.00 | 43 | 991.0 |
| 20260902201525 | 36 | 293 | 0.0 | 16.1 | 0.00 | 0.00 | 0.00 | 45 | 991.3 |
| 20260902200040 | 36 | 268 | 0.0 | 9.7 | 0.00 | 0.00 | 0.00 | 44 | 991.4 |
| 20260902194523 | 36 | 359 | 0.0 | 16.1 | 0.00 | 0.00 | 0.00 | 45 | 991.8 |
| 20260902193018 | 36 | 312 | 0.0 | 6.4 | 0.00 | 0.00 | 0.00 | 45 | 992.0 |
| 20260902191515 | 36 | 359 | 1.6 | 19.3 | 0.00 | 0.00 | 0.00 | 46 | 992.3 |
| 20260902190019 | 35 | 260 | 0.0 | 1.6 | 0.00 | 0.00 | 0.00 | 48 | 992.3 |
| 20260902184512 | 35 | 307 | 0.0 | 3.2 | 0.00 | 0.00 | 0.00 | 49 | 992.7 |
| 20260902183005 | 35 | 14 | 0.0 | 1.6 | 0.00 | 0.00 | 0.00 | 49 | 992.9 |
| 20260902181501 | 35 | 250 | 0.0 | 1.6 | 0.00 | 0.00 | 0.00 | 51 | 993.2 |
| 20260902180113 | 35 | 4 | 9.7 | 16.1 | 0.00 | 0.00 | 0.00 | 52 | 993.5 |
| 20260902174557 | 35 | 295 | 0.0 | 1.6 | 0.00 | 0.00 | 0.00 | 51 | 993.8 |
| 20260902173053 | 34 | 21 | 0.0 | 1.6 | 0.00 | 0.00 | 0.00 | 54 | 993.9 |
| 20260902171553 | 34 | 359 | 0.0 | 1.6 | 0.00 | 0.00 | 0.00 | 55 | 994.2 |
| 20260902170051 | 34 | 359 | 0.0 | 1.6 | 0.00 | 0.00 | 0.00 | 56 | 994.5 |
| 20260902164546 | 33 | 359 | 0.0 | 1.6 | 0.00 | 0.00 | 0.00 | 55 | 994.7 |
| 20260902163044 | 33 | 289 | 0.0 | 3.2 | 0.00 | 0.00 | 0.00 | 58 | 995.0 |
| 20260902161545 | 32 | 359 | 0.0 | 0.0 | 0.00 | 0.00 | 0.00 | 61 | 995.0 |
| 20260902160037 | 31 | 73 | 0.0 | 1.6 | 0.00 | 0.00 | 0.00 | 63 | 995.0 |
| 20260902154536 | 31 | 163 | 0.0 | 1.6 | 0.00 | 0.00 | 0.00 | 65 | 995.0 |
| 20260902153036 | 31 | 359 | 0.0 | 3.2 | 0.00 | 0.00 | 0.00 | 66 | 995.1 |
| 20260902151530 | 30 | 52 | 0.0 | 1.6 | 0.00 | 0.00 | 0.00 | 67 | 995.0 |
| 20260902150026 | 30 | 10 | 0.0 | 1.6 | 0.00 | 0.00 | 0.00 | 68 | 995.0 |
| 20260902144524 | 29 | 359 | 0.0 | 1.6 | 0.00 | 0.00 | 0.00 | 70 | 994.9 |
| 20260902143021 | 29 | 52 | 0.0 | 1.6 | 0.00 | 0.00 | 0.00 | 71 | 994.9 |
| 20260902141532 | 28 | 27 | 0.0 | 1.6 | 0.00 | 0.00 | 0.00 | 72 | 994.9 |
| 20260902140019 | 28 | 42 | 0.0 | 1.6 | 0.00 | 0.00 | 0.00 | 74 | 994.8 |
| 20260902134518 | 27 | 359 | 0.0 | 1.6 | 0.00 | 0.00 | 0.00 | 75 | 994.8 |
| 20260902133018 | 27 | 359 | 0.0 | 1.6 | 0.00 | 0.00 | 0.00 | 76 | 994.6 |
| 20260902131522 | 26 | 106 | 0.0 | 3.2 | 0.00 | 0.00 | 0.00 | 77 | 994.5 |
| 20260902130016 | 26 | 359 | 0.0 | 1.6 | 0.00 | 0.00 | 0.00 | 79 | 994.7 |
| 20260902124515 | 25 | 37 | 0.0 | 1.6 | 0.00 | 0.00 | 0.00 | 81 | 994.5 |
| 20260902123013 | 25 | 42 | 0.0 | 1.6 | 0.00 | 0.00 | 0.00 | 82 | 994.4 |
| 20260902121512 | 24 | 359 | 0.0 | 3.2 | 0.00 | 0.00 | 0.00 | 82 | 994.3 |
| 20260902120015 | 24 | 359 | 0.0 | 0.0 | 0.00 | 0.00 | 0.00 | 82 | 994.2 |
| 20260902114521 | 24 | 359 | 0.0 | 0.0 | 0.00 | 0.00 | 0.00 | 82 | 994.1 |
| 20260902113010 | 25 | 33 | 0.0 | 0.0 | 0.00 | 0.00 | 0.00 | 81 | 994.3 |
| 20260902111508 | 25 | 359 | 0.0 | 0.0 | 0.00 | 0.00 | 0.00 | 80 | 994.2 |
| 20260902110012 | 25 | 359 | 0.0 | 0.0 | 0.00 | 0.00 | 0.00 | 79 | 994.1 |
| 20260902104506 | 25 | 359 | 0.0 | 0.0 | 0.00 | 0.00 | 0.00 | 78 | 994.1 |
| 20260902103001 | 26 | 31 | 0.0 | 0.0 | 0.00 | 0.00 | 0.00 | 75 | 994.1 |
| 20260902101617 | 26 | 40 | 0.0 | 0.0 | 0.00 | 0.00 | 0.00 | 73 | 994.1 |
| 20260902100057 | 26 | 42 | 0.0 | 1.6 | 0.00 | 0.00 | 0.00 | 74 | 994.1 |
| 20260902094556 | 26 | 81 | 0.0 | 1.6 | 0.00 | 0.00 | 0.00 | 73 | 994.1 |
| 20260902093054 | 27 | 42 | 0.0 | 1.6 | 0.00 | 0.00 | 0.00 | 73 | 994.0 |
| 20260902091554 | 27 | 148 | 0.0 | 1.6 | 0.00 | 0.00 | 0.00 | 73 | 994.0 |
| 20260902090053 | 27 | 191 | 0.0 | 1.6 | 0.00 | 0.00 | 0.00 | 72 | 993.9 |
| 20260902084554 | 27 | 64 | 0.0 | 1.6 | 0.00 | 0.00 | 0.00 | 73 | 993.7 |
| 20260902083051 | 27 | 176 | 0.0 | 1.6 | 0.00 | 0.00 | 0.00 | 73 | 993.7 |
| 20260902081551 | 27 | 145 | 0.0 | 1.6 | 0.00 | 0.00 | 0.00 | 73 | 993.8 |
| 20260902080054 | 27 | 81 | 0.0 | 1.6 | 0.00 | 0.00 | 0.00 | 72 | 993.8 |
| 20260902074546 | 27 | 66 | 0.0 | 1.6 | 0.00 | 0.00 | 0.00 | 72 | 993.8 |
| 20260902073044 | 27 | 44 | 0.0 | 1.6 | 0.00 | 0.00 | 0.00 | 71 | 993.9 |
| 20260902071543 | 27 | 27 | 0.0 | 3.2 | 0.00 | 0.00 | 0.00 | 71 | 993.9 |
| 20260902070040 | 28 | 50 | 0.0 | 1.6 | 0.00 | 0.00 | 0.00 | 70 | 994.0 |
| 20260902064542 | 28 | 37 | 0.0 | 1.6 | 0.00 | 0.00 | 0.00 | 70 | 994.1 |
| 20260902063038 | 28 | 43 | 0.0 | 1.6 | 0.00 | 0.00 | 0.00 | 70 | 994.0 |
| 20260902061545 | 28 | 75 | 0.0 | 3.2 | 0.00 | 0.00 | 0.00 | 70 | 993.9 |
| 20260902060037 | 28 | 50 | 0.0 | 3.2 | 0.00 | 0.00 | 0.00 | 70 | 993.9 |
| 20260902054536 | 28 | 53 | 0.0 | 3.2 | 0.00 | 0.00 | 0.00 | 70 | 993.9 |
| 20260902053037 | 28 | 34 | 0.0 | 3.2 | 0.00 | 0.00 | 0.00 | 69 | 993.9 |
| 20260902051532 | 29 | 37 | 0.0 | 3.2 | 0.00 | 0.00 | 0.00 | 68 | 993.9 |
| 20260902050028 | 29 | 79 | 0.0 | 3.2 | 0.00 | 0.00 | 0.00 | 68 | 993.8 |
| 20260902044527 | 29 | 57 | 0.0 | 3.2 | 0.00 | 0.00 | 0.00 | 67 | 993.8 |
| 20260902043029 | 30 | 56 | 0.0 | 3.2 | 0.00 | 0.00 | 0.00 | 66 | 993.8 |
| 20260902041528 | 30 | 34 | 0.0 | 3.2 | 0.00 | 0.00 | 0.00 | 65 | 993.7 |
| 20260902040026 | 30 | 43 | 0.0 | 4.8 | 0.00 | 0.00 | 0.00 | 64 | 993.7 |
| 20260902034526 | 30 | 62 | 0.0 | 3.2 | 0.00 | 0.00 | 0.00 | 62 | 993.6 |
| 20260902033035 | 31 | 39 | 0.0 | 17.7 | 0.00 | 0.00 | 0.00 | 60 | 993.5 |
| 20260902031530 | 31 | 21 | 0.0 | 0.0 | 0.00 | 0.00 | 0.00 | 57 | 993.1 |
| 20260902030024 | 31 | 43 | 0.0 | 0.0 | 0.00 | 0.00 | 0.00 | 58 | 992.8 |
| 20260902024523 | 31 | 47 | 0.0 | 0.0 | 0.00 | 0.00 | 0.00 | 57 | 992.7 |
| 20260902023025 | 31 | 33 | 0.0 | 1.6 | 0.00 | 0.00 | 0.00 | 57 | 992.5 |
| 20260902021527 | 31 | 18 | 0.0 | 1.6 | 0.00 | 0.00 | 0.00 | 56 | 992.3 |
| 20260902020022 | 31 | 359 | 0.0 | 1.6 | 0.00 | 0.00 | 0.00 | 56 | 992.1 |
| 20260902014534 | 32 | 359 | 0.0 | 0.0 | 0.00 | 0.00 | 0.00 | 56 | 991.9 |
| 20260902013021 | 32 | 4 | 0.0 | 1.6 | 0.00 | 0.00 | 0.00 | 55 | 991.8 |
| 20260902011533 | 32 | 31 | 0.0 | 1.6 | 0.00 | 0.00 | 0.00 | 53 | 991.7 |
| 20260902010031 | 33 | 359 | 0.0 | 1.6 | 0.00 | 0.00 | 0.00 | 52 | 991.6 |
| 20260902004526 | 33 | 359 | 0.0 | 0.0 | 0.00 | 0.00 | 0.00 | 50 | 991.5 |
| 20260902003018 | 33 | 4 | 0.0 | 0.0 | 0.00 | 0.00 | 0.00 | 49 | 991.5 |
| 20260902001518 | 33 | 35 | 0.0 | 0.0 | 0.00 | 0.00 | 0.00 | 50 | 991.6 |